Location: Newark
(37.8333°N, 119.5000°W)
Time: 17:31:32
(UTC+00:00)

Tiros 1 despin weight - Pass Details

Date: 21 August 2019
Orbit: 594 x 643 km, 48.2° (Epoch: 16 October)

Event Time Altitude Azimuth Distance (km) Brightness Sun altitude
Rises 13:11:14 0° 305° (NW) 2,890 ? -2.2°
Reaches altitude 10° 13:13:34 10° 309° (NW) 1,991 ? -1.8°
Maximum altitude 13:18:06 59° 29° (NNE) 728 ? -0.9°
Drops below altitude 10° 13:22:41 10° 109° (ESE) 2,012 ? 0.0°
Sets 13:25:03 0° 113° (ESE) 2,924 ? 0.4°
